Volver al catálogo

OPS 4682 DEB

LostPO
NORAD 38447·DEBRIS·🇺🇸 United States

Lanzado Apr 3, 1965 desde Vandenberg Space Force Base

Loading…

Próximos Pases (próximas 24 horas)

TLE

ObsoletoSource: Space-Track

Época: Jul 16, 2014, 16:08 UTC

1 38447U 65027FC  14197.67233814  .00000140  00000-0  10000-3 0  9991
2 38447 090.2901 255.5260 0033867 118.9367 241.5750 12.91900399531710

Sigue OPS 4682 DEB en tiempo real con AllMySat

Download on the App Store